Вернуться в каталог

CZ-6A DEB

АктивенPO
NORAD 60681·DEBRIS·🇨🇳 China

Запущен Aug 6, 2024 с Taiyuan Satellite Launch Center

Loading…

Ближайшие Пролёты (ближайшие 24 часа)

TLE

СвежийSource: Space-Track

Эпоха: Sep 14, 2026, 11:12 UTC

1 60681U 24140CJ  26257.46680238  .00000525  00000-0  36098-3 0  9992
2 60681  88.9897 268.3450 0183066  10.8517 349.6522 13.90271063106444

Отслеживайте CZ-6A DEB в реальном времени с AllMySat

Download on the App Store